Flag for Ecuador Weather past 2 weeks in Guayaquil, Ecuador

Now
77 °F

Light rain. Mostly cloudy.


Feels Like: 78 °F
Forecast: 78 / 84 °F
Wind: 6 mph from West

Location: Guayaquil / Simon Bolivar

Current Time: Mar 28, 2015 at 9:44:27 AM

Latest Report: Mar 28, 2015 at 9:00 AM


Visibility: 5 mi

Pressure: 29.95 "Hg

Humidity: 83%

Dew point: 72 °F

Location of GuayaquilLocation

Historic Weather in Guayaquil — Graph

°F

Guayaquil temperature yesterday

Maximum temperature yesterday: 84 °F (at 1:00 PM)
Minimum temperature yesterday: 79 °F (at 2:00 AM)
Average temperature yesterday: 80 °F

Past Weeks' High & Low Weather Summary

 TemperatureHumidityPressure
High102 °F (Mar 24, 8:00 PM)89% (Mar 14, 12:00 AM)30.01 "Hg (Mar 14, 12:00 AM)
Low73 °F (Mar 17, 6:00 AM)37% (Mar 24, 8:00 PM)29.65 "Hg (Mar 13, 5:00 PM)
Average81 °F75%29.85 "Hg
* Reported Mar 13 8:00 AM — Mar 28 8:00 AM, Guayaquil, Weather by CustomWeather, © 2015

Note: Actual official high and low records may vary slightly from our data, if they occured in-between our weather recording intervals... More about our weather records

Advertising

Guayaquil weather history for previous 24 hours

 ConditionsComfort  
Time TempWeatherWind HumidityBarometerVisibility
8:00 AM
Sat, Mar 28
79 °FScattered showers. Partly sunny.6 mph84%29.92 "HgN/A
7:00 AM79 °FCloudy.5 mph84%29.92 "HgN/A
6:00 AM77 °FPartly cloudy.No wind83%29.89 "HgN/A
4:00 AM77 °FPartly cloudy.3 mph83%29.86 "HgN/A
2:00 AM77 °FPartly cloudy.6 mph89%29.89 "HgN/A
1:00 AM77 °FLight rain. Mostly cloudy.5 mph89%29.89 "HgN/A
12:00 AM81 °FThunderstorms. Passing clouds.6 mph79%29.92 "HgN/A
11:00 PM
Fri, Mar 27
81 °FPassing clouds.2 mph74%29.89 "HgN/A
10:00 PM81 °FPassing clouds.3 mph79%29.89 "HgN/A
9:00 PM81 °FPartly cloudy.3 mph79%29.86 "HgN/A
8:00 PM81 °FPassing clouds.1 mph79%29.83 "HgN/A
7:00 PM81 °FPassing clouds.3 mph79%29.80 "HgN/A
6:00 PM82 °FPartly sunny.7 mph74%29.77 "HgN/A
5:00 PM81 °FPartly sunny.1 mph79%29.77 "HgN/A
4:00 PM81 °FLight rain. Partly sunny.1 mph79%29.77 "HgN/A
3:00 PM82 °FRain. Partly sunny.2 mph74%29.77 "HgN/A
2:00 PM84 °FBroken clouds.5 mph70%29.80 "HgN/A
1:00 PM84 °FScattered clouds.3 mph66%29.83 "HgN/A
12:00 PM81 °FPartly sunny.3 mph79%29.86 "HgN/A
11:00 AM81 °FLight rain. Broken clouds.5 mph79%29.92 "HgN/A
10:00 AM79 °FMixture of precip. Cloudy.6 mph84%29.92 "HgN/A
9:00 AM79 °FLight rain. Mostly cloudy.2 mph84%29.92 "HgN/A
Weather by CustomWeather, © 2015

See weather overviewHow to use our weather pages